TimeEST,TemperatureF,Dew PointF,Humidity,Sea Level PressureIn,VisibilityMPH,Wind Direction,Wind SpeedMPH,Gust SpeedMPH,PrecipitationIn,Events,Conditions,WindDirDegrees,DateUTC
12:53 AM,37.0,34.0,89,29.73,10.0,Variable,4.6,-,N/A,,Overcast,0,2012-11-09 05:53:00
1:53 AM,37.0,33.1,86,29.74,10.0,Variable,6.9,-,N/A,,Overcast,0,2012-11-09 06:53:00
2:40 AM,37.4,33.8,87,29.74,10.0,Variable,4.6,-,N/A,,Overcast,0,2012-11-09 07:40:00
2:53 AM,37.0,32.0,82,29.74,10.0,Variable,5.8,-,N/A,,Overcast,0,2012-11-09 07:53:00
3:27 AM,37.4,32.0,81,29.75,10.0,NNW,8.1,-,N/A,,Mostly Cloudy,340,2012-11-09 08:27:00
3:38 AM,37.4,32.0,81,29.75,10.0,Variable,5.8,-,N/A,,Overcast,0,2012-11-09 08:38:00
3:53 AM,37.0,32.0,82,29.75,10.0,Variable,6.9,-,N/A,,Mostly Cloudy,0,2012-11-09 08:53:00
4:53 AM,37.9,30.9,76,29.78,10.0,Variable,4.6,-,N/A,,Overcast,0,2012-11-09 09:53:00
5:01 AM,37.4,30.2,75,29.78,10.0,NNW,8.1,-,N/A,,Overcast,340,2012-11-09 10:01:00
5:43 AM,37.4,30.2,75,29.79,10.0,Variable,6.9,-,N/A,,Overcast,0,2012-11-09 10:43:00
5:53 AM,37.9,30.0,73,29.80,10.0,Variable,6.9,-,N/A,,Overcast,0,2012-11-09 10:53:00
6:53 AM,37.9,30.0,73,29.81,10.0,Variable,4.6,-,N/A,,Overcast,0,2012-11-09 11:53:00
7:53 AM,39.0,30.9,73,29.84,10.0,Variable,4.6,-,N/A,,Mostly Cloudy,0,2012-11-09 12:53:00
8:53 AM,42.1,30.9,65,29.85,10.0,Variable,5.8,-,N/A,,Clear,0,2012-11-09 13:53:00
9:53 AM,45.0,30.9,58,29.86,10.0,Variable,4.6,-,N/A,,Clear,0,2012-11-09 14:53:00
10:53 AM,46.9,30.9,54,29.86,10.0,Variable,6.9,-,N/A,,Clear,0,2012-11-09 15:53:00
11:53 AM,50.0,30.9,48,29.84,10.0,Variable,5.8,-,N/A,,Clear,0,2012-11-09 16:53:00
12:53 PM,50.0,30.0,46,29.86,10.0,NW,8.1,18.4,N/A,,Clear,320,2012-11-09 17:53:00
1:53 PM,48.9,30.0,48,29.86,10.0,Variable,6.9,-,N/A,,Clear,0,2012-11-09 18:53:00
2:53 PM,48.9,28.9,46,29.88,10.0,Variable,6.9,16.1,N/A,,Clear,0,2012-11-09 19:53:00
3:53 PM,46.9,27.0,46,29.91,10.0,Variable,3.5,-,N/A,,Clear,0,2012-11-09 20:53:00
4:53 PM,45.0,23.0,42,29.94,10.0,Variable,4.6,-,N/A,,Clear,0,2012-11-09 21:53:00
5:53 PM,44.1,21.9,42,29.98,10.0,Variable,5.8,16.1,N/A,,Clear,0,2012-11-09 22:53:00
6:53 PM,42.1,24.1,49,29.99,10.0,Variable,4.6,-,N/A,,Clear,0,2012-11-09 23:53:00
7:53 PM,41.0,25.0,53,30.01,10.0,Variable,3.5,-,N/A,,Clear,0,2012-11-10 00:53:00
8:53 PM,39.0,26.1,60,30.03,10.0,Calm,Calm,-,N/A,,Overcast,0,2012-11-10 01:53:00
9:53 PM,34.0,27.0,75,30.04,10.0,Calm,Calm,-,N/A,,Clear,0,2012-11-10 02:53:00
10:53 PM,30.9,26.1,82,30.06,10.0,Calm,Calm,-,N/A,,Clear,0,2012-11-10 03:53:00
11:53 PM,28.9,25.0,85,30.04,10.0,Calm,Calm,-,N/A,,Clear,0,2012-11-10 04:53:00